Regional Weather Roundup
Issued by NWS

Home | Current Version | Previous Version | Text Only | Print | Product List | Glossary Off
Versions: 1 2 3 4 5 6 7 8 9 10 11 12 13 14 15 16 17 18 19 20 21 22 23 24 25 26 27

000
ASUS45 KBOU 062107
RWRCO

WEATHER ROUNDUP FOR COLORADO
NATIONAL WEATHER SERVICE DENVER/BOULDER CO
200 PM MST TUE DEC 06 2016

NOTE: "FAIR" INDICATES FEW OR NO CLOUDS BELOW 12000 FEET WITH NO
SIGNIFICANT WEATHER AND/OR OBSTRUCTIONS TO VISIBILITY.

COZ001>005-013-030-031-062200-
...NORTHWEST COLORADO...

CITY           SKY/WX    TMP DP  RH WIND       PRES   REMARKS
CRAIG          CLOUDY    27   6  41 E13       29.71F WCI  16
HAYDEN         PTSUNNY   21   7  53 SE9       29.70F WCI  11
MEEKER         FAIR      26  10  50 S3        29.67F
MOUNT WERNER   NOT AVBL
STEAMBOAT SPGS CLOUDY    19   5  54 CALM      29.70F
WALDEN           N/A     14   1  57 W3        29.68F
$$

COZ006>008-011-062200-
...WEST CENTRAL VALLEYS...

CITY           SKY/WX    TMP DP  RH WIND       PRES   REMARKS
GRAND JUNCTION PTSUNNY   31   9  39 CALM      29.72F
MONTROSE       PTSUNNY   33  11  39 NE9       29.72F WCI  25
EAGLE          CLOUDY    25   9  50 CALM      29.72F
RIFLE          CLOUDY    28   8  43 CALM      29.71F
DELTA          NOT AVBL
NUCLA          CLOUDY    32  18  55 CALM      29.74
$$

COZ017>023-064>068-062200-
...SOUTHWEST COLORADO...

CITY           SKY/WX    TMP DP  RH WIND       PRES   REMARKS
DURANGO        CLOUDY    37  15  40 W6        29.77F
CORTEZ         CLOUDY    45  19  35 SW14      29.76F
PAGOSA SPRINGS FAIR      34  14  43 SW8       29.78S WCI  27
TELLURIDE      CLOUDY    31   7  37 SW10G28   29.74F WCI  22
WOLF CREEK PAS LGT SNOW  10  10 100 SW20G33   29.74S WCI  -8
$$

COZ009-010-012-014-032>034-037-058>063-062200-
...CENTRAL COLORADO...

CITY           SKY/WX    TMP DP  RH WIND       PRES   REMARKS
ASPEN          CLOUDY    26  12  55 NW5       29.64F WCI  20
BUENA VISTA    CLOUDY    30  16  56 W3        29.67F
COPPER MTN     NOT AVBL
BERTHOUD PASS  LGT SNOW   5  -8  56 W10       29.58F WCI -10
COTTONWOOD PAS LGT SNOW  27  18  69 S10G21    29.65S VSB 1   WCI  17
GUNNISON       FAIR      24  16  71 N9        29.71F WCI  14
KREMMLING      CLOUDY    21   9  58 CALM      29.72F
LEADVILLE      LGT SNOW  17  12  80 CALM      29.62F VSB 3/4
MONARCH PASS   LGT SNOW  14  10  85 SW29G39   29.74F VSB 3/4 WCI  -7
SALIDA         CLOUDY    29   1  30 SE17      29.76F WCI  17
SUNLIGHT       CLOUDY    14   9  79 SW14G22   29.66F HAZE    WCI  -1
WILKERSON PASS CLOUDY    23   5  46 SW10G26   29.64F WCI  12
$$

COZ069>075-062200-
...SAN LUIS VALLEY/SANGRE DE CRISTO MOUNTAINS...

CITY           SKY/WX    TMP DP  RH WIND       PRES   REMARKS
ALAMOSA        FAIR      37  19  48 SW20G30   29.71F
LA VETA PASS   CLOUDY    23  14  68 N20G36    29.70F WCI   8
SAGUACHE       PTSUNNY   36  10  35 E5        29.68F
$$

COZ035-036-038>040-062200-
...NORTHERN COLORADO FRONT RANGE...

CITY           SKY/WX    TMP DP  RH WIND       PRES   REMARKS
DENVER INTL AP PTSUNNY   30   2  30 SE21      29.79F WCI  17
DMNS CITY PARK   N/A     30   2  29 SE12G18   29.80S WCI  21
AURORA         NOT AVBL
FRONT RANGE AP PTSUNNY   30   1  29 SE17G26   29.83F WCI  18
ERIE MUNI ARPT CLOUDY    31   2  29 NW6       29.82F WCI  26
BOULDER MUN AP CLOUDY    28   3  34 NW6       29.82F WCI  22
CENTENNIAL     PTSUNNY   26   1  34 S14       29.79F WCI  14
BROOMFIELD     PTSUNNY   28   1  31 VRB3      29.81S
FORT COLLINS   FAIR      28   0  29 SE7       29.85F WCI  21
LONGMONT       CLOUDY    32   3  29 CALM      29.85F
$$

COZ041-046-047-076>085-087-088-062200-
...PIKES PEAK/PALMER DIVIDE AND SOUTHERN FOOTHILLS...

CITY           SKY/WX    TMP DP  RH WIND       PRES   REMARKS
COLO. SPRINGS  FAIR      23  -1  35 SE18G29   29.83F WCI   9
A. F. ACADEMY  NOT AVBL
SCHRIEVER AFB  NOT AVBL
ELLICOTT       FAIR     N/A N/A N/A S17G23    29.83F
FALCON         FAIR      22  -4  33 S15G23    29.80F WCI   8
FORT CARSON    NOT AVBL
LIMON          FAIR      27  -7  22 SE7       29.87F WCI  19
MONUMENT HILL  CLOUDY    19  -2  38 S18G24    29.77F WCI   4
TRINIDAD       FAIR      36   4  26 SE5       29.78F
$$

COZ042>045-048>051-090-091-062200-
...NORTHEAST COLORADO...

CITY           SKY/WX    TMP DP  RH WIND       PRES   REMARKS
GREELEY ARPT   PTSUNNY   30  -4  23 E15       29.87F WCI  19
AKRON          FAIR      29 -14  15 VRB3      29.90F
BURLINGTON     FAIR      32  -9  16 CALM      29.95F
WRAY           NOT AVBL
STERLING       FAIR      32  -4  21 SE10      29.91S WCI  24
HOLYOKE        FAIR      36  -4  18 NE3       29.95F
FORT MORGAN    CLOUDY    31 -17  11 NE5       29.90S WCI  27
$$

COZ086-089-092>099-062200-
...SOUTHEAST COLORADO...

CITY           SKY/WX    TMP DP  RH WIND       PRES   REMARKS
PUEBLO         FAIR      32   1  26 E17       29.87F WCI  21
LA JUNTA       FAIR      33  -1  23 SE20      29.91F WCI  21
LAMAR          FAIR      33   1  25 SE12      29.95F WCI  24
SPRINGFIELD      N/A     30  -1  26 S18       29.95F WCI  18
$$




USA.gov is the U.S. government's official web portal to all federal, state and local government web resources and services.